Home   Weather   Wellington   Past weeks
Flag for New Zealand

Past Weather in Wellington, New Zealand — Yesterday and Last 2 Weeks

Now
70 °F

Partly sunny.


Feels Like: 70 °F
Forecast: 66 / 61 °F
Wind: 29 mph from North

Location: Wellington Airport

Current Time: Mar 26, 2019 at 6:23:16 pm

Latest Report: Mar 26, 2019 at 6:00 pm


Visibility: N/A

Pressure: 30.04 "Hg

Humidity: 78%

Dew Point: 63 °F

Location of WellingtonLocation

Past Weather in Wellington — Graph

°F

Wellington Temperature Yesterday

Maximum temperature yesterday: 72 °F (at 11:00 am)
Minimum temperature yesterday: 66 °F (at 12:00 am)
Average temperature yesterday: 68 °F

High & Low Weather Summary for the Past Weeks

 TemperatureHumidityPressure
High72 °F (Mar 12, 2:30 pm)100% (Mar 13, 4:30 am)30.42 "Hg (Mar 13, 4:30 am)
Low54 °F (Mar 18, 3:00 am)60% (Mar 23, 7:00 pm)29.89 "Hg (Mar 13, 5:30 pm)
Average64 °F82%30.19 "Hg
* Reported Mar 11 5:00 pm — Mar 26 5:00 pm, Wellington. Weather by CustomWeather, © 2019

Note: Actual official high and low records may vary slightly from our data, if they occured in-between our weather recording intervals... More about our weather records

Advertising

Wellington Weather History for the Previous 24 Hours

Scroll right to see more
 ConditionsComfort  
Time TempWeatherWind HumidityBarometerVisibility
5:00 pm
Tue, Mar 26
70 °FPartly sunny.26 mph78%30.04 "HgN/A
4:30 pm70 °FPartly sunny.29 mph78%30.04 "HgN/A
4:00 pm70 °FPartly sunny.28 mph78%30.04 "HgN/A
3:30 pm70 °FPartly sunny.28 mph78%30.07 "HgN/A
3:00 pm70 °FPartly sunny.24 mph78%30.07 "HgN/A
2:30 pm70 °FPartly sunny.26 mph78%30.07 "HgN/A
1:30 pm70 °FPartly sunny.26 mph78%30.07 "HgN/A
1:00 pm68 °FSprinkles. Partly sunny.24 mph83%30.07 "HgN/A
12:30 pm70 °FSprinkles. Broken clouds.25 mph78%30.09 "HgN/A
12:00 pm70 °FBroken clouds.26 mph73%30.09 "HgN/A
11:30 am70 °FPartly sunny.24 mph73%30.09 "HgN/A
11:00 am70 °FBroken clouds.23 mph78%30.09 "HgN/A
10:30 am68 °FBroken clouds.25 mph78%30.09 "HgN/A
10:00 am70 °FBroken clouds.25 mph78%30.12 "HgN/A
9:30 am68 °FPartly sunny.28 mph83%30.12 "HgN/A
9:00 am68 °FPartly sunny.26 mph78%30.12 "HgN/A
8:30 am68 °FPartly sunny.22 mph78%30.12 "HgN/A
8:00 am68 °FPartly sunny.23 mph78%30.12 "HgN/A
7:30 am68 °FPartly sunny.21 mph78%30.12 "HgN/A
7:00 am68 °FPassing clouds.22 mph78%30.12 "HgN/A
6:30 am68 °FPassing clouds.21 mph78%30.15 "HgN/A
6:00 am68 °FPassing clouds.22 mph78%30.15 "HgN/A
5:30 am68 °FPartly cloudy.22 mph78%30.15 "HgN/A
5:00 am68 °FPartly cloudy.21 mph78%30.15 "HgN/A
4:30 am68 °FPassing clouds.24 mph78%30.15 "HgN/A
4:00 am66 °FPassing clouds.21 mph83%30.15 "HgN/A
3:30 am66 °FPassing clouds.24 mph83%30.15 "HgN/A
3:00 am66 °FPassing clouds.21 mph83%30.18 "HgN/A
2:30 am68 °FPassing clouds.18 mph78%30.21 "HgN/A
2:00 am68 °FPassing clouds.16 mph78%30.21 "HgN/A
1:30 am68 °FPassing clouds.20 mph78%30.21 "HgN/A
1:00 am68 °FPassing clouds.18 mph78%30.21 "HgN/A
12:30 am68 °FPassing clouds.21 mph83%30.21 "HgN/A
12:00 am68 °FPassing clouds.21 mph83%30.21 "HgN/A
11:30 pm
Mon, Mar 25
68 °FMostly cloudy.18 mph83%30.21 "HgN/A
11:00 pm68 °FPassing clouds.20 mph83%30.21 "HgN/A
10:30 pm68 °FPassing clouds.20 mph83%30.21 "HgN/A
10:00 pm68 °FPassing clouds.21 mph78%30.21 "HgN/A
9:30 pm68 °FPassing clouds.20 mph78%30.21 "HgN/A
9:00 pm68 °FPassing clouds.17 mph78%30.21 "HgN/A
8:30 pm68 °FPassing clouds.18 mph78%30.21 "HgN/A
8:00 pm68 °FPassing clouds.21 mph78%30.18 "HgN/A
7:30 pm68 °FPassing clouds.21 mph78%30.18 "HgN/A
7:00 pm68 °FPassing clouds.21 mph78%30.18 "HgN/A
6:30 pm70 °FMild.21 mph69%30.18 "HgN/A
6:00 pm70 °FPassing clouds.20 mph73%30.18 "HgN/A
Weather by CustomWeather, © 2019

See weather overview